Temperature
9 9 9 10 11 11 11 11 11 12 13 13 12 13 14 14 14 14 15 16 18 19 20 20 20 19 19 19 19 18 18 18 17 15 15 14 14 14 13 13 12 12 11 11
8 9 10 11 11 11 11 11 11 12 13 13 12 12 13 13 13 15 15 16 18 19 19 20 20 19 19 19 19 19 19 18 17 17 17 16 15 14 13 13 12 12 11 11
8 9 11 11 10 11 11 11 11 12 12 13 13 12 12 13 13 15 16 17 18 19 19 20 20 20 20 19 19 19 19 19 18 18 16 15 13 12 12 12 12 12 11 11
8 10 10 10 10 11 11 11 11 12 12 11 12 10 11 12 13 13 14 16 17 19 19 20 20 20 20 20 20 19 19 19 19 18 17 16 14 14 14 14 13 12 12 11
8 9 9 10 10 11 11 11 11 11 11 10 11 10 10 11 12 13 13 16 18 19 19 20 20 20 20 20 20 20 19 19 19 18 17 17 16 16 15 14 13 12 11 11
8 9 9 10 11 11 11 11 11 10 10 10 10 10 10 10 12 13 14 16 18 19 19 19 19 20 20 20 20 20 19 19 19 18 17 17 17 16 15 14 13 12 12 11
7 8 9 10 10 10 11 10 9 9 9 9 10 10 11 11 12 13 14 16 18 18 19 19 19 19 19 20 19 19 19 19 19 18 17 17 17 16 15 15 14 13 12 11
6 7 8 9 10 9 10 10 9 10 9 9 9 10 11 12 12 13 15 16 17 18 18 19 19 19 19 19 19 19 19 19 18 18 17 16 16 15 15 14 14 13 13 12
6 7 9 9 10 10 9 10 10 10 9 9 8 9 9 11 11 11 12 14 15 17 18 18 19 19 19 19 19 19 18 18 18 17 16 16 15 15 14 14 13 13 12 12
5 6 7 9 9 10 10 10 9 9 9 9 9 8 10 12 12 12 12 12 15 17 18 18 18 18 18 18 18 18 18 17 17 16 16 15 15 14 14 13 13 12 12 11
4 5 6 8 9 9 9 9 9 9 9 9 9 10 11 12 13 13 13 14 16 17 18 18 18 18 18 18 18 17 17 17 16 16 15 15 14 13 13 12 12 12 11 11
4 4 5 7 8 9 9 9 9 9 8 8 9 10 12 12 12 13 13 15 16 17 17 17 17 17 17 17 17 17 16 16 16 15 15 14 13 12 12 12 11 11 11 10
4 4 5 6 7 7 8 8 8 8 7 7 8 11 12 11 11 12 13 14 15 16 17 17 17 17 17 17 16 16 16 16 15 15 14 13 12 12 11 11 11 10 10 10
4 3 4 5 5 5 6 7 8 8 8 8 9 11 13 12 12 12 12 14 15 16 16 17 17 17 17 17 16 16 16 15 15 14 13 12 12 11 11 11 10 10 10 9
3 3 3 4 5 6 6 7 7 8 9 9 9 10 12 12 12 12 13 13 14 15 16 17 17 17 17 16 16 16 15 15 14 14 13 12 12 11 11 10 10 10 9 9
2 2 3 4 5 6 6 7 8 8 9 9 9 10 11 12 12 11 12 13 13 15 16 17 17 17 17 17 16 16 15 15 14 13 13 12 11 11 10 10 9 9 9 9
1 2 2 3 5 5 6 7 8 9 9 10 10 11 10 11 11 11 13 13 15 16 17 17 17 17 17 17 17 16 15 15 14 13 12 11 11 10 10 9 9 9 9 8
1 1 2 3 4 5 7 8 8 9 9 10 10 10 11 11 13 14 15 15 16 16 17 17 17 17 17 17 16 16 15 14 14 13 12 11 10 10 9 9 8 8 8 8
2 2 2 2 3 5 6 7 7 8 8 8 9 9 9 11 12 13 15 15 16 16 17 17 17 17 17 17 16 15 15 14 13 12 12 11 10 9 9 8 8 8 8 8
2 2 2 3 4 5 6 7 7 8 8 8 8 8 8 8 10 11 14 14 15 16 16 17 17 17 17 16 16 15 15 14 13 12 11 11 10 9 9 8 8 8 7 7
1 1 2 2 3 5 6 6 7 7 7 7 8 8 8 8 10 11 13 14 15 15 16 16 16 16 16 16 16 15 15 14 13 12 11 10 9 9 8 8 7 7 7 6
2 1 2 2 3 4 5 5 6 5 6 7 7 8 8 9 10 11 12 13 14 15 15 15 16 16 16 16 15 15 14 13 12 11 10 10 9 8 8 7 7 7 6 6
2 2 2 3 4 5 5 5 5 6 6 6 7 8 8 8 9 10 11 12 13 14 14 15 15 15 15 15 15 15 14 13 12 11 10 9 8 8 7 7 7 6 6 5
1 2 2 2 3 4 5 5 5 5 5 6 6 7 8 8 8 9 10 11 12 13 14 14 14 15 14 14 14 14 13 12 11 10 9 8 8 7 7 6 6 6 5 5
1 1 1 2 3 3 5 5 5 5 5 6 6 7 7 8 8 9 9 10 11 12 13 13 14 14 14 13 13 12 12 11 11 10 9 8 7 7 6 6 5 5 5 4
0 1 1 2 3 3 4 5 5 5 5 5 6 6 7 8 8 8 9 10 11 11 12 12 13 13 13 12 12 11 11 11 10 9 8 7 7 6 6 5 5 4 4 3
Wind_Speed
10 12 19 22 21 12 9 9 10 8 7 9 13 14 14 11 9 11 11 11 12 15 14 12 13 13 12 13 15 18 19 18 16 15 15 15 15 13 12 11 16 19 18 18
11 22 23 15 15 14 12 12 10 6 6 8 8 12 12 12 11 11 13 14 14 13 11 11 11 12 14 16 18 19 20 20 19 18 17 14 11 9 9 8 12 18 19 18
23 15 15 15 17 20 18 17 14 7 1 3 3 8 10 9 9 10 11 12 12 15 15 13 12 13 14 16 18 18 21 21 22 19 11 8 6 5 8 11 12 14 18 19
20 16 16 19 20 20 22 16 12 10 6 6 5 7 9 9 9 11 13 13 13 14 14 13 12 12 14 17 16 18 19 20 20 18 17 18 15 14 15 11 12 12 16 17
13 14 18 23 22 19 10 11 12 11 10 8 6 7 9 6 10 13 14 15 15 14 14 14 13 13 13 13 13 15 16 17 18 20 21 21 17 13 9 8 12 12 12 14
14 10 14 15 14 15 6 6 5 6 7 15 16 10 9 8 12 10 11 13 14 14 13 12 11 9 9 9 10 11 14 16 17 20 20 21 19 14 13 12 14 12 9 10
13 13 10 8 11 13 12 9 7 8 10 12 11 11 12 11 11 13 14 14 12 11 10 10 10 10 9 9 10 11 14 15 17 19 20 21 19 18 18 16 15 13 10 9
10 11 13 10 13 12 18 16 11 9 8 6 7 12 10 11 11 11 12 11 9 10 10 10 10 10 10 10 10 11 13 14 16 18 18 17 16 14 12 14 13 14 13 13
7 9 7 11 8 12 14 15 8 4 3 4 7 7 9 7 9 10 11 10 12 11 10 10 9 9 9 9 10 12 13 12 14 16 15 15 16 15 14 13 12 12 10 10
4 6 6 8 6 11 10 10 8 8 8 8 6 7 7 8 12 13 12 12 13 10 9 9 8 8 7 7 7 8 10 11 12 13 14 13 14 15 13 12 13 12 11 11
4 5 4 8 12 14 10 11 8 7 5 7 6 8 9 13 14 14 15 12 12 11 10 9 7 6 6 6 7 8 8 9 10 11 12 12 12 12 12 12 13 12 11 12
3 4 5 9 8 9 9 10 10 10 7 6 5 8 6 11 10 10 12 11 9 9 8 7 6 6 6 7 7 8 8 9 9 10 10 11 11 12 12 12 12 12 12 13
2 3 3 2 3 3 5 7 10 7 4 5 7 8 3 3 5 6 7 7 6 7 6 5 6 6 7 7 7 8 8 8 8 9 10 10 11 12 12 12 12 12 12 12
3 4 5 6 4 4 8 10 11 9 9 9 11 8 4 4 5 6 6 6 6 6 6 6 6 7 7 8 8 8 8 8 8 9 10 11 11 12 11 11 11 11 12 12
1 5 7 10 11 8 11 14 14 15 15 14 13 12 10 8 6 5 5 5 6 6 7 8 8 7 7 7 8 8 8 8 9 10 10 10 9 9 10 10 10 10 10 11
2 5 6 10 11 10 12 15 19 20 20 18 12 14 10 7 4 3 5 6 7 8 9 9 8 8 9 9 9 9 9 9 9 10 9 9 9 9 10 10 10 10 9 9
3 3 3 7 7 7 11 15 19 18 19 19 21 16 5 8 8 7 7 7 9 9 9 9 9 10 10 10 10 11 10 9 10 9 9 9 10 10 10 10 10 10 10 9
7 6 4 5 4 9 8 5 8 15 15 14 11 7 10 11 11 9 8 9 9 9 9 9 9 9 8 7 8 9 9 10 10 10 9 9 10 10 10 10 10 9 8 9
14 9 5 4 5 8 8 4 8 11 13 8 9 7 6 5 5 7 7 8 10 11 9 9 8 8 8 9 10 11 10 10 10 10 10 10 11 11 11 10 9 8 8 8
11 10 6 5 5 7 5 5 4 7 9 4 6 7 5 4 8 11 7 7 9 8 6 6 5 6 9 10 12 12 11 11 11 10 10 10 10 11 11 10 9 6 8 8
6 7 10 8 6 7 6 6 2 6 5 5 6 7 7 10 12 9 6 8 8 7 6 6 7 8 9 11 13 12 11 11 9 9 10 9 10 10 10 9 7 9 9 9
6 5 6 6 8 9 3 3 2 4 7 6 6 7 9 11 10 6 6 7 7 5 5 6 7 7 8 11 13 12 10 9 10 11 11 10 9 9 9 10 9 9 10 10
7 7 4 7 7 4 2 3 5 5 7 7 8 9 8 8 8 7 6 6 6 6 6 6 8 9 8 9 12 13 10 12 13 12 11 11 10 9 9 11 11 8 8 8
5 4 5 6 9 8 8 7 6 7 8 10 10 10 8 7 7 6 5 5 5 5 6 7 10 11 9 8 9 11 13 13 14 14 12 11 11 10 8 8 8 8 7 7
7 4 5 8 8 8 7 5 7 10 13 13 12 10 7 6 6 5 5 5 5 5 6 8 10 12 11 10 11 12 13 15 15 14 12 11 10 11 9 8 6 7 5 7
8 9 8 9 7 6 10 10 9 12 14 13 12 11 8 5 5 4 3 4 5 7 8 9 10 12 12 13 12 11 12 15 16 14 11 10 9 9 9 10 9 11 9 11
Wind_Direction
200 205 213 211 208 211 197 198 214 217 198 187 219 236 245 241 218 229 232 228 225 227 232 226 216 208 200 196 195 196 197 197 191 193 195 197 201 198 197 196 193 191 191 189
214 224 222 212 209 213 215 220 224 236 208 201 231 245 246 238 224 222 225 226 225 228 235 229 218 208 203 201 200 200 199 196 193 197 199 200 195 194 195 191 193 193 192 190
220 226 212 209 211 214 219 218 216 213 194 223 248 274 253 248 227 230 229 227 225 223 227 227 219 212 206 206 204 203 201 198 197 194 184 171 158 156 182 195 198 197 194 192
226 229 213 213 215 209 226 218 211 215 219 241 206 261 259 243 246 236 234 231 230 228 226 224 218 215 210 211 206 204 201 198 195 187 184 184 191 197 199 195 195 191 193 192
223 208 212 217 216 206 219 193 205 217 224 246 227 240 265 239 242 242 236 233 232 230 226 226 219 215 214 208 202 202 198 196 191 188 190 192 198 199 184 172 180 187 191 192
240 229 213 218 217 205 178 156 191 213 216 239 228 222 259 219 219 231 232 231 231 230 228 229 224 212 208 197 193 191 191 193 189 190 191 195 196 186 174 178 186 189 188 190
235 235 224 201 197 201 189 173 193 204 214 235 204 211 244 221 215 217 226 231 231 226 224 223 216 206 198 189 187 185 187 191 189 190 193 197 196 189 187 186 188 186 186 191
217 227 208 202 201 195 198 189 198 198 203 226 184 219 242 226 221 225 232 235 233 227 220 216 209 202 197 191 185 183 186 190 188 191 195 195 192 192 193 188 186 189 193 193
224 234 203 207 197 181 190 200 194 181 181 198 220 252 287 245 238 233 234 232 232 227 218 213 207 198 192 187 186 185 185 186 189 192 191 191 191 191 190 186 184 188 189 183
240 247 227 201 189 199 190 174 174 195 190 218 232 232 230 212 216 223 224 223 225 219 213 210 204 197 190 186 180 175 181 185 187 188 189 191 191 191 186 181 183 184 180 175
252 245 233 192 197 194 180 185 182 187 199 189 220 246 217 205 205 210 216 217 216 211 207 204 199 190 176 166 166 167 172 174 179 184 184 183 185 183 180 182 184 181 176 175
268 252 248 223 219 198 187 184 179 192 204 196 204 256 239 213 216 210 215 216 213 209 201 193 185 170 166 167 167 169 170 174 179 178 177 180 177 175 178 181 180 175 176 178
298 271 274 248 199 186 204 190 195 190 158 180 200 250 278 212 226 225 220 218 209 202 191 180 175 177 178 176 172 171 171 172 168 166 168 171 172 174 179 179 174 173 173 173
287 242 233 241 257 233 235 226 210 196 208 216 221 222 240 223 224 225 218 211 200 199 191 186 188 190 185 178 174 169 168 164 161 161 166 171 175 177 176 172 170 171 170 171
293 247 250 270 277 248 248 234 218 216 216 218 225 221 222 222 219 221 208 189 184 198 201 200 199 194 184 177 173 167 164 161 159 161 168 174 170 166 162 163 165 164 166 170
258 260 261 269 266 259 256 235 223 223 224 229 231 236 230 226 202 197 192 186 198 209 212 207 201 194 189 185 177 169 166 163 160 164 169 161 156 156 159 160 157 157 160 161
257 251 272 263 272 277 248 221 213 217 222 221 229 232 203 226 221 216 211 204 210 214 211 205 203 201 197 188 175 173 166 157 159 161 159 156 155 156 158 154 153 158 160 156
222 231 240 273 260 235 238 212 216 225 230 227 232 220 197 216 226 223 206 203 216 217 213 212 207 201 191 168 157 151 149 154 158 158 157 156 155 154 151 151 155 155 153 156
211 212 221 230 247 268 279 244 210 215 233 228 235 241 231 233 226 248 230 218 221 217 212 210 202 189 168 158 153 146 149 153 157 161 161 160 155 151 151 154 154 149 148 149
204 208 220 223 240 243 274 299 270 201 240 247 238 243 235 176 219 242 238 234 240 233 218 202 173 158 158 157 149 148 154 158 167 166 160 155 152 151 154 154 147 140 141 141
187 203 216 224 242 265 296 311 113 175 262 296 241 244 225 215 232 250 234 225 225 224 210 179 158 164 166 153 149 150 154 166 160 145 140 141 144 145 143 136 134 134 130 127
197 202 206 204 224 246 332 38 141 289 306 299 268 250 245 248 252 247 229 218 208 200 184 163 155 156 150 151 149 149 156 147 133 132 131 132 132 131 131 128 126 128 130 128
211 204 210 218 236 274 271 261 281 296 309 312 306 290 266 258 256 250 240 219 201 185 174 160 149 141 140 151 150 147 146 137 131 127 127 125 121 120 128 131 131 129 130 132
251 220 223 248 260 275 285 288 297 310 309 309 307 300 282 262 254 245 237 214 190 172 161 150 143 141 142 143 138 136 136 135 130 127 126 125 123 118 114 118 127 132 136 135
238 228 237 251 268 287 279 276 300 310 313 314 315 304 285 264 260 240 229 203 182 166 153 153 151 146 142 135 128 130 135 132 126 125 125 123 121 121 114 106 109 122 133 147
221 217 226 245 245 251 275 286 295 303 303 303 309 309 303 270 251 247 220 189 169 156 147 142 139 137 135 132 130 132 135 133 130 129 129 127 125 122 120 113 94 81 97 106
Height
1427 1431 1426 1424 1428 1431 1436 1439 1439 1437 1434 1438 1439 1438 1434 1433 1435 1435 1435 1436 1438 1440 1444 1447 1450 1454 1457 1461 1464 1468 1471 1475 1479 1483 1486 1490 1493 1496 1500 1504 1509 1513 1516 1519
1425 1419 1414 1420 1425 1429 1432 1435 1436 1434 1432 1434 1436 1434 1429 1427 1427 1427 1428 1429 1431 1434 1437 1440 1444 1447 1450 1453 1457 1460 1464 1468 1472 1475 1479 1483 1487 1491 1495 1500 1504 1508 1512 1515
1411 1406 1411 1417 1420 1424 1425 1429 1432 1433 1431 1431 1433 1433 1426 1420 1420 1420 1420 1421 1423 1426 1429 1432 1436 1439 1442 1445 1449 1453 1456 1460 1464 1468 1473 1478 1483 1487 1491 1494 1497 1502 1506 1510
1405 1405 1407 1410 1412 1416 1418 1419 1426 1430 1434 1436 1435 1439 1425 1418 1415 1414 1413 1413 1415 1418 1421 1424 1428 1431 1434 1438 1442 1445 1449 1452 1456 1461 1465 1469 1473 1476 1480 1485 1490 1496 1501 1505
1396 1397 1401 1402 1402 1408 1411 1414 1423 1427 1431 1435 1433 1437 1424 1415 1413 1407 1405 1405 1407 1410 1413 1416 1419 1423 1427 1430 1434 1438 1442 1445 1449 1453 1457 1462 1466 1471 1476 1481 1486 1491 1495 1500
1393 1394 1395 1395 1399 1404 1408 1415 1421 1426 1431 1432 1425 1433 1421 1412 1403 1399 1397 1397 1399 1402 1405 1408 1411 1415 1419 1423 1426 1430 1434 1438 1442 1446 1451 1455 1460 1464 1469 1474 1479 1485 1490 1494
1390 1389 1389 1390 1396 1400 1404 1413 1422 1424 1426 1420 1415 1420 1406 1396 1392 1390 1390 1390 1392 1395 1398 1400 1403 1407 1411 1416 1420 1423 1427 1431 1435 1440 1444 1449 1454 1459 1463 1468 1473 1478 1483 1488
1389 1384 1383 1384 1386 1390 1394 1402 1409 1412 1415 1415 1414 1410 1394 1384 1382 1382 1383 1384 1386 1389 1391 1394 1397 1401 1405 1410 1414 1417 1421 1425 1429 1433 1438 1443 1448 1453 1458 1463 1468 1473 1477 1482
1388 1382 1375 1376 1377 1384 1389 1393 1396 1405 1409 1412 1410 1402 1390 1380 1378 1378 1378 1379 1380 1382 1385 1389 1392 1396 1400 1404 1408 1412 1416 1420 1424 1428 1433 1437 1442 1447 1452 1458 1463 1468 1473 1478
1388 1383 1374 1372 1375 1376 1380 1385 1394 1401 1403 1403 1401 1400 1387 1376 1373 1373 1373 1373 1374 1377 1380 1384 1388 1392 1396 1400 1404 1408 1411 1415 1419 1423 1427 1432 1437 1442 1447 1453 1458 1463 1468 1473
1388 1384 1376 1372 1370 1371 1378 1382 1385 1392 1395 1395 1398 1387 1368 1364 1362 1364 1365 1366 1368 1371 1375 1380 1384 1388 1392 1396 1399 1403 1407 1411 1415 1419 1423 1427 1432 1437 1442 1448 1453 1458 1463 1468
1388 1385 1377 1370 1364 1365 1368 1373 1380 1385 1390 1390 1390 1379 1355 1356 1355 1357 1359 1361 1364 1368 1372 1376 1381 1385 1388 1392 1396 1400 1404 1407 1411 1415 1419 1423 1428 1433 1438 1443 1448 1454 1458 1463
1388 1387 1380 1371 1371 1371 1370 1371 1374 1379 1386 1390 1388 1373 1354 1354 1355 1356 1357 1359 1362 1366 1370 1374 1378 1382 1385 1389 1393 1397 1400 1404 1408 1411 1415 1419 1424 1429 1434 1439 1444 1449 1454 1458
1387 1386 1384 1378 1372 1373 1371 1370 1371 1375 1378 1379 1374 1363 1355 1355 1355 1355 1356 1358 1361 1364 1367 1371 1375 1379 1383 1387 1390 1394 1397 1401 1405 1408 1412 1416 1420 1425 1430 1435 1440 1445 1450 1454
1387 1385 1380 1375 1372 1370 1367 1365 1366 1368 1365 1367 1361 1360 1354 1353 1353 1353 1354 1356 1359 1362 1365 1369 1372 1376 1380 1384 1387 1391 1395 1399 1402 1405 1409 1413 1418 1422 1427 1431 1436 1441 1446 1450
1387 1385 1379 1372 1366 1364 1361 1357 1358 1358 1356 1356 1357 1354 1348 1349 1350 1352 1353 1355 1357 1359 1362 1366 1370 1374 1377 1381 1385 1389 1392 1396 1400 1403 1407 1411 1415 1419 1424 1428 1433 1438 1442 1446
1387 1385 1381 1372 1365 1361 1356 1345 1345 1345 1343 1345 1347 1343 1347 1348 1348 1349 1350 1353 1355 1357 1360 1363 1367 1371 1374 1378 1382 1386 1390 1394 1397 1401 1405 1408 1412 1416 1421 1425 1430 1434 1439 1443
1385 1383 1381 1374 1367 1361 1343 1336 1338 1338 1337 1338 1338 1339 1342 1342 1343 1345 1347 1350 1352 1355 1358 1361 1365 1368 1372 1376 1380 1384 1388 1391 1395 1398 1402 1406 1410 1414 1418 1423 1427 1432 1436 1440
1374 1378 1377 1373 1365 1353 1340 1335 1334 1336 1334 1334 1336 1337 1339 1339 1341 1340 1342 1345 1348 1351 1354 1358 1361 1365 1369 1373 1377 1381 1385 1388 1392 1396 1399 1403 1407 1411 1416 1420 1424 1429 1433 1437
1368 1372 1373 1368 1360 1348 1336 1331 1328 1333 1333 1331 1333 1334 1337 1339 1342 1335 1337 1341 1343 1347 1350 1354 1357 1361 1365 1369 1374 1378 1381 1385 1389 1393 1397 1401 1405 1409 1413 1418 1422 1426 1430 1434
1366 1368 1366 1363 1357 1345 1337 1331 1327 1335 1332 1329 1328 1330 1332 1333 1331 1332 1334 1336 1339 1342 1345 1349 1353 1357 1361 1365 1370 1374 1378 1382 1387 1391 1395 1399 1403 1408 1412 1416 1420 1424 1428 1431
1359 1361 1360 1357 1355 1345 1335 1333 1334 1335 1331 1327 1324 1324 1324 1323 1324 1326 1328 1330 1333 1336 1339 1343 1348 1352 1357 1361 1366 1370 1375 1380 1384 1389 1393 1397 1402 1406 1410 1414 1418 1422 1425 1429
1354 1353 1352 1349 1343 1335 1333 1333 1332 1331 1329 1325 1323 1320 1319 1318 1318 1319 1321 1324 1327 1331 1334 1338 1343 1347 1353 1357 1362 1367 1372 1377 1382 1386 1391 1395 1400 1404 1408 1412 1416 1420 1423 1426
1349 1347 1347 1344 1336 1332 1330 1329 1328 1328 1326 1323 1320 1318 1315 1314 1313 1314 1316 1318 1321 1324 1329 1333 1338 1343 1349 1354 1359 1364 1369 1374 1379 1384 1389 1394 1398 1402 1407 1411 1415 1418 1421 1424
1346 1344 1343 1338 1333 1329 1326 1326 1325 1324 1322 1319 1316 1314 1312 1310 1309 1309 1310 1312 1315 1319 1324 1330 1335 1340 1346 1351 1357 1362 1368 1373 1377 1383 1387 1392 1397 1401 1405 1409 1414 1417 1420 1423
1337 1339 1338 1332 1328 1328 1324 1322 1322 1321 1319 1317 1314 1309 1308 1307 1306 1305 1306 1308 1312 1315 1320 1326 1331 1337 1343 1349 1355 1361 1366 1371 1376 1381 1386 1391 1395 1400 1404 1408 1412 1415 1419 1421